owner,sensor,date,latitude,longitude,vertical_datum,direction_of_sea_water_velocity,sea_water_speed,upward_sea_water_velocity,qcFlag 
TABS,ioos:station:wmo:42049:1,2003-07-01T00:00:00Z,28.3507,-96.0058,2.0,258.9495997,66.5742683,-99999.0,'11111222,11111222,99999999' 
TABS,ioos:station:wmo:42049:1,2003-07-01T00:30:00Z,28.3507,-96.0058,2.0,258.8678119,63.70863442,-99999.0,'11111222,11111222,99999999' 
TABS,ioos:station:wmo:42049:1,2003-07-01T01:00:00Z,28.3507,-96.0058,2.0,261.467384,58.63898106,-99999.0,'11111222,11111222,99999999' 
TABS,ioos:station:wmo:42049:1,2003-07-01T01:30:00Z,28.3507,-96.0058,2.0,259.0247315,43.59736231,-99999.0,'11111222,11111222,99999999' 
TABS,ioos:station:wmo:42049:1,2003-07-01T02:00:00Z,28.3507,-96.0058,2.0,264.4897766,30.09906477,-99999.0,'11111222,11111222,99999999' 
TABS,ioos:station:wmo:42049:1,2003-07-01T02:30:00Z,28.3507,-96.0058,2.0,256.0054016,62.81431843,-99999.0,'11111222,11111222,99999999' 
TABS,ioos:station:wmo:42049:1,2003-07-01T03:00:00Z,28.3507,-96.0058,2.0,254.9603315,61.93126028,-99999.0,'11111222,11111222,99999999' 
TABS,ioos:station:wmo:42049:1,2003-07-01T03:30:00Z,28.3507,-96.0058,2.0,250.6479248,60.08464196,-99999.0,'11111222,11111222,99999999' 
TABS,ioos:station:wmo:42049:1,2003-07-01T04:00:00Z,28.3507,-96.0058,2.0,242.7405868,57.96760647,-99999.0,'11111222,11111222,99999999' 
TABS,ioos:station:wmo:42049:1,2003-07-01T04:30:00Z,28.3507,-96.0058,2.0,245.8383229,49.15624986,-99999.0,'11111222,11111222,99999999' 
TABS,ioos:station:wmo:42049:1,2003-07-01T05:00:00Z,28.3507,-96.0058,2.0,243.1579815,48.16993772,-99999.0,'11111222,11111222,99999999' 
TABS,ioos:station:wmo:42049:1,2003-07-01T05:30:00Z,28.3507,-96.0058,2.0,235.435769,38.3730752,-99999.0,'11111222,11111222,99999999' 
TABS,ioos:station:wmo:42049:1,2003-07-01T06:00:00Z,28.3507,-96.0058,2.0,242.452148,58.16420635,-99999.0,'11111222,11111222,99999999' 
TABS,ioos:station:wmo:42049:1,2003-07-01T06:30:00Z,28.3507,-96.0058,2.0,236.8361683,54.01898648,-99999.0,'11111222,11111222,99999999' 
TABS,ioos:station:wmo:42049:1,2003-07-01T07:00:00Z,28.3507,-96.0058,2.0,237.3548748,53.66785444,-99999.0,'11111222,11111222,99999999' 
TABS,ioos:station:wmo:42049:1,2003-07-01T07:30:00Z,28.3507,-96.0058,2.0,235.4146199,49.36324544,-99999.0,'11111222,11111222,99999999' 
TABS,ioos:station:wmo:42049:1,2003-07-01T08:00:00Z,28.3507,-96.0058,2.0,228.5655741,48.4315868,-99999.0,'11111222,11111222,99999999' 
TABS,ioos:station:wmo:42049:1,2003-07-01T08:30:00Z,28.3507,-96.0058,2.0,235.9797549,42.87903567,-99999.0,'11111222,11111222,99999999' 
TABS,ioos:station:wmo:42049:1,2003-07-01T09:00:00Z,28.3507,-96.0058,2.0,256.5078162,33.9468187,-99999.0,'11111222,11111222,99999999' 
TABS,ioos:station:wmo:42049:1,2003-07-01T09:30:00Z,28.3507,-96.0058,2.0,267.2042983,32.39854935,-99999.0,'11111222,11111222,99999999' 
TABS,ioos:station:wmo:42049:1,2003-07-01T10:00:00Z,28.3507,-96.0058,2.0,269.9398961,28.80001562,-99999.0,'11111222,11111222,99999999' 
TABS,ioos:station:wmo:42049:1,2003-07-01T10:30:00Z,28.3507,-96.0058,2.0,279.4557664,27.08802134,-99999.0,'11111222,11111222,99999999' 
TABS,ioos:station:wmo:42049:1,2003-07-01T11:00:00Z,28.3507,-96.0058,2.0,276.9664627,20.11851138,-99999.0,'11111222,11111222,99999999' 
TABS,ioos:station:wmo:42049:1,2003-07-01T11:30:00Z,28.3507,-96.0058,2.0,278.6090353,26.9233226,-99999.0,'11111222,11111222,99999999' 
TABS,ioos:station:wmo:42049:1,2003-07-01T12:00:00Z,28.3507,-96.0058,2.0,290.2260934,32.88793852,-99999.0,'11111222,11111222,99999999' 
TABS,ioos:station:wmo:42049:1,2003-07-01T12:30:00Z,28.3507,-96.0058,2.0,301.1213126,36.87747958,-99999.0,'11111222,11111222,99999999' 
TABS,ioos:station:wmo:42049:1,2003-07-01T13:00:00Z,28.3507,-96.0058,2.0,302.9041209,38.60244811,-99999.0,'11111222,11111222,99999999' 
TABS,ioos:station:wmo:42049:1,2003-07-01T13:30:00Z,28.3507,-96.0058,2.0,306.9029353,35.04000571,-99999.0,'11111222,11111222,99999999' 
TABS,ioos:station:wmo:42049:1,2003-07-01T14:00:00Z,28.3507,-96.0058,2.0,313.380562,30.26919391,-99999.0,'11111222,11111222,99999999' 
TABS,ioos:station:wmo:42049:1,2003-07-01T14:30:00Z,28.3507,-96.0058,2.0,316.2517206,29.13974948,-99999.0,'11111222,11111222,99999999' 
TABS,ioos:station:wmo:42049:1,2003-07-01T15:00:00Z,28.3507,-96.0058,2.0,310.8841331,22.6575771,-99999.0,'11111222,11111222,99999999' 
TABS,ioos:station:wmo:42049:1,2003-07-01T15:30:00Z,28.3507,-96.0058,2.0,321.8358317,22.21967146,-99999.0,'11111222,11111222,99999999' 
TABS,ioos:station:wmo:42049:1,2003-07-01T16:00:00Z,28.3507,-96.0058,2.0,332.0231147,20.50649897,-99999.0,'11111222,11111222,99999999' 
TABS,ioos:station:wmo:42049:1,2003-07-01T16:30:00Z,28.3507,-96.0058,2.0,322.6427627,19.03468939,-99999.0,'11111222,11111222,99999999' 
TABS,ioos:station:wmo:42049:1,2003-07-01T17:00:00Z,28.3507,-96.0058,2.0,312.4598542,16.59088907,-99999.0,'11111222,11111222,99999999' 
TABS,ioos:station:wmo:42049:1,2003-07-01T17:30:00Z,28.3507,-96.0058,2.0,315.4466213,14.52441393,-99999.0,'11111222,11111222,99999999' 
TABS,ioos:station:wmo:42049:1,2003-07-01T18:00:00Z,28.3507,-96.0058,2.0,314.6687822,13.44232495,-99999.0,'11111222,11111222,99999999' 
TABS,ioos:station:wmo:42049:1,2003-07-01T18:30:00Z,28.3507,-96.0058,2.0,304.7448117,11.75608778,-99999.0,'11111222,11111222,99999999' 
TABS,ioos:station:wmo:42049:1,2003-07-01T19:00:00Z,28.3507,-96.0058,2.0,290.8460216,11.57785818,-99999.0,'11111222,11111222,99999999' 
TABS,ioos:station:wmo:42049:1,2003-07-01T19:30:00Z,28.3507,-96.0058,2.0,276.4427117,13.01216738,-99999.0,'11111222,11111222,99999999' 
TABS,ioos:station:wmo:42049:1,2003-07-01T20:00:00Z,28.3507,-96.0058,2.0,283.5293288,13.42244762,-99999.0,'11111222,11111222,99999999' 
TABS,ioos:station:wmo:42049:1,2003-07-01T20:30:00Z,28.3507,-96.0058,2.0,276.710242,19.34248433,-99999.0,'11111222,11111222,99999999' 
TABS,ioos:station:wmo:42049:1,2003-07-01T21:00:00Z,28.3507,-96.0058,2.0,276.0380893,19.87022144,-99999.0,'11111222,11111222,99999999' 
TABS,ioos:station:wmo:42049:1,2003-07-01T21:30:00Z,28.3507,-96.0058,2.0,289.9611335,19.71430445,-99999.0,'11111222,11111222,99999999' 
TABS,ioos:station:wmo:42049:1,2003-07-01T22:00:00Z,28.3507,-96.0058,2.0,286.8993761,20.05604647,-99999.0,'11111222,11111222,99999999' 
TABS,ioos:station:wmo:42049:1,2003-07-01T22:30:00Z,28.3507,-96.0058,2.0,281.7851419,22.71887321,-99999.0,'11111222,11111222,99999999' 
TABS,ioos:station:wmo:42049:1,2003-07-01T23:00:00Z,28.3507,-96.0058,2.0,274.9883714,25.87800031,-99999.0,'11111222,11111222,99999999' 
TABS,ioos:station:wmo:42049:1,2003-07-01T23:30:00Z,28.3507,-96.0058,2.0,283.2708158,24.13445048,-99999.0,'11111222,11111222,99999999' 
TABS,ioos:station:wmo:42049:1,2003-07-02T00:00:00Z,28.3507,-96.0058,2.0,285.9556581,23.90073848,-99999.0,'11111222,11111222,99999999' 
TABS,ioos:station:wmo:42049:1,2003-07-02T00:30:00Z,28.3507,-96.0058,2.0,287.2569687,22.45059465,-99999.0,'11111222,11111222,99999999' 
TABS,ioos:station:wmo:42049:1,2003-07-02T01:00:00Z,28.3507,-96.0058,2.0,291.8536166,20.52491413,-99999.0,'11111222,11111222,99999999' 
TABS,ioos:station:wmo:42049:1,2003-07-02T01:30:00Z,28.3507,-96.0058,2.0,299.9384614,11.40133764,-99999.0,'11111222,11111222,99999999' 
TABS,ioos:station:wmo:42049:1,2003-07-02T02:00:00Z,28.3507,-96.0058,2.0,315.0003157,12.19052091,-99999.0,'11111222,11111222,99999999' 
TABS,ioos:station:wmo:42049:1,2003-07-02T02:30:00Z,28.3507,-96.0058,2.0,317.2211945,25.54574329,-99999.0,'11111222,11111222,99999999' 
TABS,ioos:station:wmo:42049:1,2003-07-02T03:00:00Z,28.3507,-96.0058,2.0,318.5712991,28.38180403,-99999.0,'11111222,11111222,99999999' 
TABS,ioos:station:wmo:42049:1,2003-07-02T03:30:00Z,28.3507,-96.0058,2.0,325.1130412,28.67316515,-99999.0,'11111222,11111222,99999999' 
TABS,ioos:station:wmo:42049:1,2003-07-02T04:00:00Z,28.3507,-96.0058,2.0,328.8247261,28.76393923,-99999.0,'11111222,11111222,99999999' 
TABS,ioos:station:wmo:42049:1,2003-07-02T04:30:00Z,28.3507,-96.0058,2.0,330.3263719,28.03683292,-99999.0,'11111222,11111222,99999999' 
TABS,ioos:station:wmo:42049:1,2003-07-02T05:00:00Z,28.3507,-96.0058,2.0,335.6006305,26.74905793,-99999.0,'11111222,11111222,99999999' 
TABS,ioos:station:wmo:42049:1,2003-07-02T05:30:00Z,28.3507,-96.0058,2.0,338.198852,26.33345591,-99999.0,'11111222,11111222,99999999' 
TABS,ioos:station:wmo:42049:1,2003-07-02T06:00:00Z,28.3507,-96.0058,2.0,340.5180047,27.85483261,-99999.0,'11111222,11111222,99999999' 
TABS,ioos:station:wmo:42049:1,2003-07-02T06:30:00Z,28.3507,-96.0058,2.0,345.9258155,29.11398289,-99999.0,'11111222,11111222,99999999' 
TABS,ioos:station:wmo:42049:1,2003-07-02T07:00:00Z,28.3507,-96.0058,2.0,348.8637604,26.56012989,-99999.0,'11111222,11111222,99999999' 
TABS,ioos:station:wmo:42049:1,2003-07-02T07:30:00Z,28.3507,-96.0058,2.0,347.8755701,26.75686828,-99999.0,'11111222,11111222,99999999' 
TABS,ioos:station:wmo:42049:1,2003-07-02T08:00:00Z,28.3507,-96.0058,2.0,351.947241,26.26904071,-99999.0,'11111222,11111222,99999999' 
TABS,ioos:station:wmo:42049:1,2003-07-02T08:30:00Z,28.3507,-96.0058,2.0,351.9676842,27.40891278,-99999.0,'11111222,11111222,99999999' 
TABS,ioos:station:wmo:42049:1,2003-07-02T09:00:00Z,28.3507,-96.0058,2.0,357.0281143,27.38683808,-99999.0,'11111222,11111222,99999999' 
TABS,ioos:station:wmo:42049:1,2003-07-02T09:30:00Z,28.3507,-96.0058,2.0,358.4490633,25.85947602,-99999.0,'11111222,11111222,99999999' 
TABS,ioos:station:wmo:42049:1,2003-07-02T10:00:00Z,28.3507,-96.0058,2.0,357.8038359,24.78821091,-99999.0,'11111222,11111222,99999999' 
TABS,ioos:station:wmo:42049:1,2003-07-02T10:30:00Z,28.3507,-96.0058,2.0,357.8704827,19.64356892,-99999.0,'11111222,11111222,99999999' 
TABS,ioos:station:wmo:42049:1,2003-07-02T11:00:00Z,28.3507,-96.0058,2.0,354.7932399,8.264103097,-99999.0,'11133222,11111222,99999999' 
TABS,ioos:station:wmo:42049:1,2003-07-02T11:30:00Z,28.3507,-96.0058,2.0,356.5159616,15.13798203,-99999.0,'11111222,11111222,99999999' 
TABS,ioos:station:wmo:42049:1,2003-07-02T12:00:00Z,28.3507,-96.0058,2.0,349.9409507,12.93890258,-99999.0,'11111222,11111222,99999999' 
TABS,ioos:station:wmo:42049:1,2003-07-02T12:30:00Z,28.3507,-96.0058,2.0,351.3638852,9.123447813,-99999.0,'11133222,11111222,99999999' 
TABS,ioos:station:wmo:42049:1,2003-07-02T13:00:00Z,28.3507,-96.0058,2.0,327.9842405,5.696428706,-99999.0,'11133222,11111222,99999999' 
TABS,ioos:station:wmo:42049:1,2003-07-02T13:30:00Z,28.3507,-96.0058,2.0,309.5775771,5.462096667,-99999.0,'11133222,11111222,99999999' 
TABS,ioos:station:wmo:42049:1,2003-07-02T14:00:00Z,28.3507,-96.0058,2.0,288.5511923,6.254998002,-99999.0,'11133222,11111222,99999999' 
TABS,ioos:station:wmo:42049:1,2003-07-02T14:30:00Z,28.3507,-96.0058,2.0,279.6324495,7.76953023,-99999.0,'11133222,11111222,99999999' 
TABS,ioos:station:wmo:42049:1,2003-07-02T15:00:00Z,28.3507,-96.0058,2.0,240.3770196,8.719661691,-99999.0,'11133222,11111222,99999999' 
TABS,ioos:station:wmo:42049:1,2003-07-02T15:30:00Z,28.3507,-96.0058,2.0,230.6281507,10.30982541,-99999.0,'11111222,11111222,99999999' 
TABS,ioos:station:wmo:42049:1,2003-07-02T16:00:00Z,28.3507,-96.0058,2.0,233.7939703,15.35503175,-99999.0,'11111222,11111222,99999999' 
TABS,ioos:station:wmo:42049:1,2003-07-02T16:30:00Z,28.3507,-96.0058,2.0,231.6991121,15.94096923,-99999.0,'11111222,11111222,99999999' 
TABS,ioos:station:wmo:42049:1,2003-07-02T17:00:00Z,28.3507,-96.0058,2.0,223.069687,15.53687871,-99999.0,'11111222,11111222,99999999' 
TABS,ioos:station:wmo:42049:1,2003-07-02T17:30:00Z,28.3507,-96.0058,2.0,226.9259418,31.55479361,-99999.0,'11111222,11111222,99999999' 
TABS,ioos:station:wmo:42049:1,2003-07-02T18:00:00Z,28.3507,-96.0058,2.0,230.4813669,30.64473201,-99999.0,'11111222,11111222,99999999' 
TABS,ioos:station:wmo:42049:1,2003-07-02T18:30:00Z,28.3507,-96.0058,2.0,235.7619577,27.56708545,-99999.0,'11111222,11111222,99999999' 
TABS,ioos:station:wmo:42049:1,2003-07-02T19:00:00Z,28.3507,-96.0058,2.0,241.7293296,36.96963213,-99999.0,'11111222,11111222,99999999' 
TABS,ioos:station:wmo:42049:1,2003-07-02T19:30:00Z,28.3507,-96.0058,2.0,242.7762044,37.75179201,-99999.0,'11111222,11111222,99999999' 
TABS,ioos:station:wmo:42049:1,2003-07-02T20:00:00Z,28.3507,-96.0058,2.0,236.5963529,36.01990838,-99999.0,'11111222,11111222,99999999' 
TABS,ioos:station:wmo:42049:1,2003-07-02T20:30:00Z,28.3507,-96.0058,2.0,241.3580967,35.2993881,-99999.0,'11111222,11111222,99999999' 
TABS,ioos:station:wmo:42049:1,2003-07-02T21:00:00Z,28.3507,-96.0058,2.0,253.0357385,32.76567106,-99999.0,'11111222,11111222,99999999' 
TABS,ioos:station:wmo:42049:1,2003-07-02T21:30:00Z,28.3507,-96.0058,2.0,251.9584517,31.28831411,-99999.0,'11111222,11111222,99999999' 
TABS,ioos:station:wmo:42049:1,2003-07-02T22:00:00Z,28.3507,-96.0058,2.0,260.8562267,37.50656609,-99999.0,'11111222,11111222,99999999' 
TABS,ioos:station:wmo:42049:1,2003-07-02T22:30:00Z,28.3507,-96.0058,2.0,261.5176975,33.62780397,-99999.0,'11111222,11111222,99999999' 
TABS,ioos:station:wmo:42049:1,2003-07-02T23:00:00Z,28.3507,-96.0058,2.0,261.4137916,29.33878832,-99999.0,'11111222,11111222,99999999' 
TABS,ioos:station:wmo:42049:1,2003-07-02T23:30:00Z,28.3507,-96.0058,2.0,266.4607785,31.42993,-99999.0,'11111222,11111222,99999999' 
TABS,ioos:station:wmo:42049:1,2003-07-03T00:00:00Z,28.3507,-96.0058,2.0,270.1292715,26.68006747,-99999.0,'11111222,11111222,99999999' 
TABS,ioos:station:wmo:42049:1,2003-07-03T00:30:00Z,28.3507,-96.0058,2.0,279.4788368,23.37918091,-99999.0,'11111222,11111222,99999999' 
TABS,ioos:station:wmo:42049:1,2003-07-03T01:00:00Z,28.3507,-96.0058,2.0,275.0969162,18.01120762,-99999.0,'11111222,11111222,99999999' 
TABS,ioos:station:wmo:42049:1,2003-07-03T01:30:00Z,28.3507,-96.0058,2.0,286.8882581,9.01894118,-99999.0,'11133222,11111222,99999999' 
TABS,ioos:station:wmo:42049:1,2003-07-03T02:00:00Z,28.3507,-96.0058,2.0,289.6114866,18.94919787,-99999.0,'11111222,11111222,99999999' 
TABS,ioos:station:wmo:42049:1,2003-07-03T02:30:00Z,28.3507,-96.0058,2.0,281.049815,19.40981453,-99999.0,'11111222,11111222,99999999' 
TABS,ioos:station:wmo:42049:1,2003-07-03T03:00:00Z,28.3507,-96.0058,2.0,284.0014269,15.78907217,-99999.0,'11111222,11111222,99999999' 
TABS,ioos:station:wmo:42049:1,2003-07-03T03:30:00Z,28.3507,-96.0058,2.0,298.1531556,18.8841362,-99999.0,'11111222,11111222,99999999' 
TABS,ioos:station:wmo:42049:1,2003-07-03T04:00:00Z,28.3507,-96.0058,2.0,306.6418341,17.56013952,-99999.0,'11111222,11111222,99999999' 
TABS,ioos:station:wmo:42049:1,2003-07-03T04:30:00Z,28.3507,-96.0058,2.0,315.0243189,16.87864035,-99999.0,'11111222,11111222,99999999' 
TABS,ioos:station:wmo:42049:1,2003-07-03T05:00:00Z,28.3507,-96.0058,2.0,317.8190475,16.6796163,-99999.0,'11111222,11111222,99999999' 
TABS,ioos:station:wmo:42049:1,2003-07-03T05:30:00Z,28.3507,-96.0058,2.0,330.4288547,16.79810108,-99999.0,'11111222,11111222,99999999' 
TABS,ioos:station:wmo:42049:1,2003-07-03T06:00:00Z,28.3507,-96.0058,2.0,339.8574543,16.55238956,-99999.0,'11111222,11111222,99999999' 
TABS,ioos:station:wmo:42049:1,2003-07-03T06:30:00Z,28.3507,-96.0058,2.0,344.6378198,14.9854396,-99999.0,'11111222,11111222,99999999' 
TABS,ioos:station:wmo:42049:1,2003-07-03T07:00:00Z,28.3507,-96.0058,2.0,355.7040888,18.42176159,-99999.0,'11111222,11111222,99999999' 
TABS,ioos:station:wmo:42049:1,2003-07-03T07:30:00Z,28.3507,-96.0058,2.0,358.8544503,17.50349965,-99999.0,'11111222,11111222,99999999' 
TABS,ioos:station:wmo:42049:1,2003-07-03T08:00:00Z,28.3507,-96.0058,2.0,7.028590262,16.18159448,-99999.0,'11111222,11111222,99999999' 
TABS,ioos:station:wmo:42049:1,2003-07-03T08:30:00Z,28.3507,-96.0058,2.0,11.22907602,12.47888216,-99999.0,'11111222,11111222,99999999' 
TABS,ioos:station:wmo:42049:1,2003-07-03T09:00:00Z,28.3507,-96.0058,2.0,14.11549627,12.30141862,-99999.0,'11111222,11111222,99999999' 
TABS,ioos:station:wmo:42049:1,2003-07-03T09:30:00Z,28.3507,-96.0058,2.0,19.55736867,13.56244816,-99999.0,'11111222,11111222,99999999' 
TABS,ioos:station:wmo:42049:1,2003-07-03T10:00:00Z,28.3507,-96.0058,2.0,17.29013207,18.67381589,-99999.0,'11111222,11111222,99999999' 
TABS,ioos:station:wmo:42049:1,2003-07-03T10:30:00Z,28.3507,-96.0058,2.0,27.24297732,18.52488327,-99999.0,'11111222,11111222,99999999' 
TABS,ioos:station:wmo:42049:1,2003-07-03T11:00:00Z,28.3507,-96.0058,2.0,36.87002189,7.6,-99999.0,'11133222,11111222,99999999' 
TABS,ioos:station:wmo:42049:1,2003-07-03T11:30:00Z,28.3507,-96.0058,2.0,38.40239741,16.6779645,-99999.0,'11111222,11111222,99999999' 
TABS,ioos:station:wmo:42049:1,2003-07-03T12:00:00Z,28.3507,-96.0058,2.0,42.04172181,16.44093063,-99999.0,'11111222,11111222,99999999' 
TABS,ioos:station:wmo:42049:1,2003-07-03T12:30:00Z,28.3507,-96.0058,2.0,49.57510695,14.80448918,-99999.0,'11111222,11111222,99999999' 
TABS,ioos:station:wmo:42049:1,2003-07-03T13:00:00Z,28.3507,-96.0058,2.0,37.46007548,19.61504015,-99999.0,'11111222,11111222,99999999' 
TABS,ioos:station:wmo:42049:1,2003-07-03T13:30:00Z,28.3507,-96.0058,2.0,43.49395097,16.67934051,-99999.0,'11111222,11111222,99999999' 
TABS,ioos:station:wmo:42049:1,2003-07-03T14:00:00Z,28.3507,-96.0058,2.0,52.12156662,14.20220053,-99999.0,'11111222,11111222,99999999' 
TABS,ioos:station:wmo:42049:1,2003-07-03T14:30:00Z,28.3507,-96.0058,2.0,50.13542823,17.37973533,-99999.0,'11111222,11111222,99999999' 
TABS,ioos:station:wmo:42049:1,2003-07-03T15:00:00Z,28.3507,-96.0058,2.0,46.74223986,19.07241463,-99999.0,'11111222,11111222,99999999' 
TABS,ioos:station:wmo:42049:1,2003-07-03T15:30:00Z,28.3507,-96.0058,2.0,69.67326609,16.38003968,-99999.0,'11111222,11111222,99999999' 
TABS,ioos:station:wmo:42049:1,2003-07-03T16:00:00Z,28.3507,-96.0058,2.0,81.74148729,10.09468177,-99999.0,'11111222,11111222,99999999' 
TABS,ioos:station:wmo:42049:1,2003-07-03T16:30:00Z,28.3507,-96.0058,2.0,123.5130545,15.2681957,-99999.0,'11111222,11111222,99999999' 
TABS,ioos:station:wmo:42049:1,2003-07-03T17:00:00Z,28.3507,-96.0058,2.0,143.502714,15.06431877,-99999.0,'11111222,11111222,99999999' 
TABS,ioos:station:wmo:42049:1,2003-07-03T17:30:00Z,28.3507,-96.0058,2.0,174.9440531,20.19858411,-99999.0,'11111222,11111222,99999999' 
TABS,ioos:station:wmo:42049:1,2003-07-03T18:00:00Z,28.3507,-96.0058,2.0,181.6468144,15.65646831,-99999.0,'11111222,11111222,99999999' 
TABS,ioos:station:wmo:42049:1,2003-07-03T18:30:00Z,28.3507,-96.0058,2.0,180.7040026,11.39086037,-99999.0,'11111222,11111222,99999999' 
TABS,ioos:station:wmo:42049:1,2003-07-03T19:00:00Z,28.3507,-96.0058,2.0,214.7468501,7.667261571,-99999.0,'11133222,11111222,99999999' 
TABS,ioos:station:wmo:42049:1,2003-07-03T19:30:00Z,28.3507,-96.0058,2.0,199.387656,17.68274017,-99999.0,'11111222,11111222,99999999' 
TABS,ioos:station:wmo:42049:1,2003-07-03T20:00:00Z,28.3507,-96.0058,2.0,205.7125736,19.84506236,-99999.0,'11111222,11111222,99999999' 
TABS,ioos:station:wmo:42049:1,2003-07-03T20:30:00Z,28.3507,-96.0058,2.0,222.2052071,27.70203061,-99999.0,'11111222,11111222,99999999' 
TABS,ioos:station:wmo:42049:1,2003-07-03T21:00:00Z,28.3507,-96.0058,2.0,228.4819,20.14023088,-99999.0,'11111222,11111222,99999999' 
TABS,ioos:station:wmo:42049:1,2003-07-03T21:30:00Z,28.3507,-96.0058,2.0,232.8867335,28.29025451,-99999.0,'11111222,11111222,99999999' 
TABS,ioos:station:wmo:42049:1,2003-07-03T22:00:00Z,28.3507,-96.0058,2.0,241.7074046,31.90082287,-99999.0,'11111222,11111222,99999999' 
TABS,ioos:station:wmo:42049:1,2003-07-03T22:30:00Z,28.3507,-96.0058,2.0,244.2525125,34.4613189,-99999.0,'11111222,11111222,99999999' 
TABS,ioos:station:wmo:42049:1,2003-07-03T23:00:00Z,28.3507,-96.0058,2.0,248.7158183,26.72264957,-99999.0,'11111222,11111222,99999999' 
TABS,ioos:station:wmo:42049:1,2003-07-03T23:30:00Z,28.3507,-96.0058,2.0,244.6478523,34.00480113,-99999.0,'11111222,11111222,99999999' 
TABS,ioos:station:wmo:42049:1,2003-07-04T00:00:00Z,28.3507,-96.0058,2.0,246.751003,43.60031766,-99999.0,'11111222,11111222,99999999' 
TABS,ioos:station:wmo:42049:1,2003-07-04T00:30:00Z,28.3507,-96.0058,2.0,248.5956406,46.58279618,-99999.0,'11111222,11111222,99999999' 
TABS,ioos:station:wmo:42049:1,2003-07-04T01:00:00Z,28.3507,-96.0058,2.0,256.3777202,46.28185822,-99999.0,'11111222,11111222,99999999' 
TABS,ioos:station:wmo:42049:1,2003-07-04T01:30:00Z,28.3507,-96.0058,2.0,260.0411536,22.78326579,-99999.0,'11111222,11111222,99999999' 
TABS,ioos:station:wmo:42049:1,2003-07-04T02:00:00Z,28.3507,-96.0058,2.0,272.1120412,35.82432693,-99999.0,'11111222,11111222,99999999' 
TABS,ioos:station:wmo:42049:1,2003-07-04T02:30:00Z,28.3507,-96.0058,2.0,275.4603108,54.12556605,-99999.0,'11111222,11111222,99999999' 
TABS,ioos:station:wmo:42049:1,2003-07-04T03:00:00Z,28.3507,-96.0058,2.0,286.5786151,52.6068104,-99999.0,'11111222,11111222,99999999' 
TABS,ioos:station:wmo:42049:1,2003-07-04T03:30:00Z,28.3507,-96.0058,2.0,289.5088158,45.06720426,-99999.0,'11111222,11111222,99999999' 
TABS,ioos:station:wmo:42049:1,2003-07-04T04:00:00Z,28.3507,-96.0058,2.0,298.4774974,43.56049816,-99999.0,'11111222,11111222,99999999' 
TABS,ioos:station:wmo:42049:1,2003-07-04T04:30:00Z,28.3507,-96.0058,2.0,303.9105283,41.87185331,-99999.0,'11111222,11111222,99999999' 
TABS,ioos:station:wmo:42049:1,2003-07-04T05:00:00Z,28.3507,-96.0058,2.0,315.7596329,44.82036368,-99999.0,'11111222,11111222,99999999' 
TABS,ioos:station:wmo:42049:1,2003-07-04T05:30:00Z,28.3507,-96.0058,2.0,317.5333579,42.07861333,-99999.0,'11111222,11111222,99999999' 
TABS,ioos:station:wmo:42049:1,2003-07-04T06:00:00Z,28.3507,-96.0058,2.0,322.5402676,45.05038957,-99999.0,'11111222,11111222,99999999' 
TABS,ioos:station:wmo:42049:1,2003-07-04T06:30:00Z,28.3507,-96.0058,2.0,327.7554295,40.57813327,-99999.0,'11111222,11111222,99999999' 
TABS,ioos:station:wmo:42049:1,2003-07-04T07:00:00Z,28.3507,-96.0058,2.0,334.2861152,40.95586527,-99999.0,'11111222,11111222,99999999' 
TABS,ioos:station:wmo:42049:1,2003-07-04T07:30:00Z,28.3507,-96.0058,2.0,331.4028107,38.7128015,-99999.0,'11111222,11111222,99999999' 
TABS,ioos:station:wmo:42049:1,2003-07-04T08:00:00Z,28.3507,-96.0058,2.0,335.8851594,43.8356955,-99999.0,'11111222,11111222,99999999' 
TABS,ioos:station:wmo:42049:1,2003-07-04T09:00:00Z,28.3507,-96.0058,2.0,337.7117274,35.38366855,-99999.0,'11111222,11111222,99999999' 
TABS,ioos:station:wmo:42049:1,2003-07-04T09:30:00Z,28.3507,-96.0058,2.0,338.9229197,36.14848406,-99999.0,'11111222,11111222,99999999' 
TABS,ioos:station:wmo:42049:1,2003-07-04T10:00:00Z,28.3507,-96.0058,2.0,341.5543012,32.93196016,-99999.0,'11111222,11111222,99999999' 
TABS,ioos:station:wmo:42049:1,2003-07-04T10:30:00Z,28.3507,-96.0058,2.0,341.6259208,26.90151111,-99999.0,'11111222,11111222,99999999' 
TABS,ioos:station:wmo:42049:1,2003-07-04T11:00:00Z,28.3507,-96.0058,2.0,329.9237553,9.857205486,-99999.0,'11133222,11111222,99999999' 
TABS,ioos:station:wmo:42049:1,2003-07-04T11:30:00Z,28.3507,-96.0058,2.0,339.1548199,14.13523965,-99999.0,'11111222,11111222,99999999' 
TABS,ioos:station:wmo:42049:1,2003-07-04T12:00:00Z,28.3507,-96.0058,2.0,332.4547328,24.30514555,-99999.0,'11111222,11111222,99999999' 
TABS,ioos:station:wmo:42049:1,2003-07-04T12:30:00Z,28.3507,-96.0058,2.0,327.0496914,19.34123316,-99999.0,'11111222,11111222,99999999' 
TABS,ioos:station:wmo:42049:1,2003-07-04T13:00:00Z,28.3507,-96.0058,2.0,307.0285072,10.86004144,-99999.0,'11111222,11111222,99999999' 
TABS,ioos:station:wmo:42049:1,2003-07-04T13:30:00Z,28.3507,-96.0058,2.0,304.1024162,6.171199235,-99999.0,'11133222,11111222,99999999' 
TABS,ioos:station:wmo:42049:1,2003-07-04T14:00:00Z,28.3507,-96.0058,2.0,299.8291754,7.619461923,-99999.0,'11133222,11111222,99999999' 
TABS,ioos:station:wmo:42049:1,2003-07-04T14:30:00Z,28.3507,-96.0058,2.0,325.0864247,4.804799684,-99999.0,'11133222,11111222,99999999' 
TABS,ioos:station:wmo:42049:1,2003-07-04T15:00:00Z,28.3507,-96.0058,2.0,356.7859985,10.16599233,-99999.0,'11111222,11111222,99999999' 
TABS,ioos:station:wmo:42049:1,2003-07-04T15:30:00Z,28.3507,-96.0058,2.0,350.5658141,10.12697882,-99999.0,'11111222,11111222,99999999' 
TABS,ioos:station:wmo:42049:1,2003-07-04T16:00:00Z,28.3507,-96.0058,2.0,3.11689564,9.56414659,-99999.0,'11133222,11111222,99999999' 
TABS,ioos:station:wmo:42049:1,2003-07-04T16:30:00Z,28.3507,-96.0058,2.0,357.0264863,10.79453565,-99999.0,'11111222,11111222,99999999' 